Date String (YYYY-MM-DD hh:mm:ss) UTC,Instrument flags,Ambient pressure (hPa),Sample flow (lpm),Bypass flow (lpm),Sample temperature (°C),Ambient temperature (°C),ASC tube jacket temperature (°C),LED temperature (°C),Box temperature (°C),Sample RH (%),Span deviation,Mass concentration (μg/m³),Mass concentration (μg/m³),Mass concentration (μg/m³)
DateTimeUTC,F1_M11,P_M11,Q1_M11,Q2_M11,T1_M11,T2_M11,T3_M11,T4_M11,T5_M11,U1_M11,ZSPAN_M11,X0_M11,X2_M11,X1_M11
2023-01-16 03:00:00,,0809.4,5.00,0.00,22.9,21.5,00.0,31.9,24.6,20.7,0000.0,0004.02,0002.30,0002.04
2023-01-16 03:01:00,,0809.4,4.99,0.00,22.9,21.5,00.0,31.9,24.6,20.8,0000.0,0004.11,0002.33,0002.06
2023-01-16 03:02:00,,0809.5,5.00,0.00,22.9,21.5,00.0,31.9,24.5,20.8,0000.0,0004.17,0002.35,0002.09
2023-01-16 03:03:00,,0809.5,5.00,0.00,22.9,21.5,00.0,31.9,24.5,20.8,0000.0,0004.26,0002.40,0002.10
2023-01-16 03:04:00,,0809.4,4.99,0.00,22.9,21.5,00.0,31.9,24.6,20.8,0000.0,0003.93,0002.41,0002.11
2023-01-16 03:05:00,,0809.4,5.01,0.00,22.9,21.5,00.0,31.8,24.6,20.7,0000.0,0003.94,0002.41,0002.10
2023-01-16 03:06:00,,0809.4,5.00,0.00,22.9,21.4,00.0,31.8,24.6,20.6,0000.0,0003.84,0002.39,0002.10
2023-01-16 03:07:00,,0809.5,5.00,0.00,22.9,21.4,00.0,31.8,24.5,20.7,0000.0,0003.88,0002.41,0002.10
2023-01-16 03:08:00,,0809.5,4.99,0.00,22.8,21.4,00.0,31.8,24.5,20.7,0000.0,0003.92,0002.43,0002.10
2023-01-16 03:09:00,,0809.4,5.01,0.00,22.8,21.4,00.0,31.8,24.5,20.9,0000.0,0003.53,0002.44,0002.11
2023-01-16 03:10:00,,0809.4,5.02,0.00,22.8,21.4,00.0,31.8,24.5,20.9,0000.0,0003.24,0002.47,0002.12
2023-01-16 03:11:00,,0809.4,5.00,0.00,22.8,21.4,00.0,31.8,24.5,20.9,0000.0,0003.33,0002.51,0002.13
2023-01-16 03:12:00,,0809.4,4.99,0.00,22.8,21.4,00.0,31.8,24.5,20.9,0000.0,0003.25,0002.49,0002.12
2023-01-16 03:13:00,,0809.4,5.00,0.00,22.8,21.4,00.0,31.8,24.5,21.0,0000.0,0003.27,0002.49,0002.10
2023-01-16 03:14:00,,0809.5,5.00,0.00,22.8,21.4,00.0,31.8,24.5,21.0,0000.0,0003.18,0002.47,0002.10
2023-01-16 03:15:00,,0809.5,5.00,0.00,22.8,21.4,00.0,31.8,24.4,20.9,0000.0,0003.22,0002.48,0002.11
2023-01-16 03:16:00,,0809.5,4.99,0.00,22.8,21.4,00.0,31.8,24.4,21.0,0000.0,0003.22,0002.47,0002.12
2023-01-16 03:17:00,,0809.6,5.00,0.00,22.8,21.4,00.0,31.8,24.4,21.0,0000.0,0003.27,0002.49,0002.12
2023-01-16 03:18:00,,0809.5,4.98,0.00,22.8,21.4,00.0,31.7,24.5,21.0,0000.0,0003.28,0002.51,0002.16
2023-01-16 03:19:00,,0809.5,4.99,0.00,22.8,21.4,00.0,31.7,24.5,21.0,0000.0,0003.38,0002.53,0002.18
2023-01-16 03:20:00,,0809.5,4.99,0.00,22.8,21.4,00.0,31.7,24.5,21.0,0000.0,0003.46,0002.53,0002.19
2023-01-16 03:21:00,,0809.6,5.00,0.00,22.8,21.4,00.0,31.7,24.5,21.0,0000.0,0003.46,0002.52,0002.19
2023-01-16 03:22:00,,0809.5,4.99,0.00,22.8,21.4,00.0,31.7,24.5,21.0,0000.0,0003.39,0002.49,0002.18
2023-01-16 03:23:00,,0809.6,5.00,0.00,22.8,21.4,00.0,31.7,24.5,21.0,0000.0,0003.32,0002.47,0002.20
2023-01-16 03:24:00,,0809.5,4.98,0.00,22.7,21.4,00.0,31.7,24.4,21.0,0000.0,0003.56,0002.47,0002.22
2023-01-16 03:25:00,,0809.7,4.99,0.00,22.7,21.4,00.0,31.7,24.4,21.0,0000.0,0004.15,0002.46,0002.22
2023-01-16 03:26:00,,0809.7,5.00,0.00,22.7,21.3,00.0,31.7,24.3,20.9,0000.0,0004.10,0002.47,0002.24
2023-01-16 03:27:00,,0809.6,5.00,0.00,22.7,21.3,00.0,31.7,24.3,20.9,0000.0,0004.16,0002.52,0002.28
2023-01-16 03:28:00,,0809.5,5.00,0.00,22.7,21.3,00.0,31.7,24.4,20.9,0000.0,0004.23,0002.59,0002.32
2023-01-16 03:29:00,,0809.5,5.00,0.00,22.7,21.3,00.0,31.7,24.4,20.9,0000.0,0004.19,0002.59,0002.35
2023-01-16 03:30:00,,0809.5,5.01,0.00,22.7,21.3,00.0,31.7,24.4,20.9,0000.0,0004.14,0002.62,0002.38
2023-01-16 03:31:00,,0809.6,5.00,0.00,22.7,21.3,00.0,31.7,24.3,20.9,0000.0,0004.20,0002.69,0002.41
2023-01-16 03:32:00,,0809.6,5.00,0.00,22.7,21.3,00.0,31.7,24.3,20.8,0000.0,0004.54,0002.76,0002.44
2023-01-16 03:33:00,,0809.7,5.00,0.00,22.7,21.3,00.0,31.7,24.3,20.8,0000.0,0005.21,0002.82,0002.48
2023-01-16 03:34:00,,0809.7,5.00,0.00,22.7,21.3,00.0,31.7,24.3,20.8,0000.0,0005.37,0002.88,0002.51
2023-01-16 03:35:00,,0809.7,5.01,0.00,22.7,21.3,00.0,31.6,24.4,20.8,0000.0,0005.11,0002.90,0002.53
2023-01-16 03:36:00,,0809.6,4.99,0.00,22.7,21.3,00.0,31.6,24.3,20.9,0000.0,0004.75,0002.99,0002.56
2023-01-16 03:37:00,,0809.6,5.00,0.00,22.6,21.3,00.0,31.6,24.3,20.7,0000.0,0004.84,0003.04,0002.58
2023-01-16 03:38:00,,0809.6,5.00,0.00,22.6,21.3,00.0,31.6,24.4,20.6,0000.0,0004.82,0003.04,0002.59
2023-01-16 03:39:00,,0809.7,5.00,0.00,22.6,21.2,00.0,31.6,24.3,20.6,0000.0,0004.78,0003.01,0002.59
2023-01-16 03:40:00,,0809.7,5.01,0.00,22.6,21.2,00.0,31.6,24.3,20.7,0000.0,0004.76,0002.99,0002.56
2023-01-16 03:41:00,,0809.6,4.99,0.00,22.6,21.3,00.0,31.6,24.3,20.7,0000.0,0004.75,0002.98,0002.55
2023-01-16 03:42:00,,0809.5,5.00,0.00,22.6,21.3,00.0,31.6,24.3,20.7,0000.0,0004.66,0002.95,0002.54
2023-01-16 03:43:00,,0809.5,5.01,0.00,22.6,21.3,00.0,31.6,24.3,20.6,0000.0,0004.54,0002.92,0002.53
2023-01-16 03:44:00,,0809.5,5.00,0.00,22.6,21.3,00.0,31.6,24.4,20.6,0000.0,0003.88,0002.90,0002.52
2023-01-16 03:45:00,,0809.6,4.99,0.00,22.6,21.3,00.0,31.6,24.3,20.5,0000.0,0003.80,0002.90,0002.52
2023-01-16 03:46:00,,0809.7,5.01,0.00,22.6,21.3,00.0,31.6,24.3,20.5,0000.0,0003.86,0002.91,0002.54
2023-01-16 03:47:00,,0809.7,5.00,0.00,22.6,21.3,00.0,31.6,24.3,20.5,0000.0,0003.82,0002.85,0002.52
2023-01-16 03:48:00,,0809.7,5.00,0.00,22.6,21.3,00.0,31.6,24.3,20.5,0000.0,0003.79,0002.80,0002.51
2023-01-16 03:49:00,,0809.7,5.00,0.00,22.6,21.2,00.0,31.6,24.3,20.5,0000.0,0003.97,0002.82,0002.49
2023-01-16 03:50:00,,0809.7,4.99,0.00,22.6,21.2,00.0,31.6,24.2,20.3,0000.0,0003.98,0002.83,0002.48
2023-01-16 03:51:00,,0809.6,5.01,0.00,22.6,21.2,00.0,31.6,24.3,20.3,0000.0,0004.08,0002.87,0002.47
2023-01-16 03:52:00,,0809.6,5.00,0.00,22.6,21.2,00.0,31.6,24.3,20.3,0000.0,0004.07,0002.85,0002.46
2023-01-16 03:53:00,,0809.5,4.99,0.00,22.6,21.2,00.0,31.5,24.3,20.3,0000.0,0004.14,0002.86,0002.45
2023-01-16 03:54:00,,0809.5,5.00,0.00,22.6,21.2,00.0,31.5,24.3,20.3,0000.0,0004.11,0002.86,0002.46
2023-01-16 03:55:00,,0809.5,4.99,0.00,22.6,21.2,00.0,31.5,24.3,20.3,0000.0,0003.96,0002.84,0002.47
2023-01-16 03:56:00,,0809.5,5.00,0.00,22.6,21.2,00.0,31.5,24.3,20.2,0000.0,0003.92,0002.83,0002.46
2023-01-16 03:57:00,,0809.6,5.02,0.00,22.6,21.2,00.0,31.5,24.3,20.3,0000.0,0003.82,0002.83,0002.45
2023-01-16 03:58:00,,0809.5,4.99,0.00,22.6,21.2,00.0,31.5,24.3,20.3,0000.0,0003.72,0002.83,0002.44
2023-01-16 03:59:00,,0809.6,4.99,0.00,22.6,21.2,00.0,31.5,24.2,20.7,0000.0,0003.71,0002.84,0002.43
